Location: Newark
(46.7000°N, 60.6000°W)
Time: 05:34:09
(UTC+00:00)

Transit 2A Rocket - Pass Details

Date: 05 November 2020
Orbit: 588 x 914 km, 66.7° (Epoch: 29 November)

Event Time Altitude Azimuth Distance (km) Brightness Sun altitude
Rises 15:18:53 0° 297° (WNW) 3,483 8.1 27.1°
Reaches altitude 10° 15:24:21 10° 338° (NNW) 2,465 7.2 27.2°
Maximum altitude 15:25:10 10° 346° (NNW) 2,432 7.1 27.2°
Drops below altitude 10° 15:25:58 10° 354° (N) 2,437 7.1 27.2°
Sets 15:31:08 0° 37° (NE) 3,264 7.8 27.3°
